Theta_e
286 287 287 287 287 287 287 287 287 287 287 287 287 287 287 287 287 287 287 287 287 287 287 287 287 287 287 287 287 287 287 286 286 286 286 287 286 286 286 286 286 286
287 287 287 287 287 287 287 287 287 287 287 287 287 287 287 287 287 287 287 286 286 286 286 286 286 286 286 286 285 285 285 285 285 285 285 285 285 285 286 286 286 286
287 287 287 287 287 287 287 287 287 287 287 287 287 287 287 287 287 287 287 286 286 285 285 284 284 284 284 284 284 284 284 284 284 283 284 284 284 284 284 284 285 285
287 287 287 287 287 287 287 288 288 288 288 288 288 288 288 288 287 287 287 287 286 286 285 284 283 283 282 282 282 282 282 282 282 282 283 283 283 283 283 283 283 284
287 287 287 287 287 287 287 288 288 288 288 288 288 288 288 287 287 287 287 287 286 286 285 284 283 283 282 282 281 281 281 281 281 281 281 282 282 282 282 282 282 282
287 287 287 287 287 287 287 287 286 287 287 287 287 287 287 287 287 287 286 286 285 285 284 283 283 282 282 281 281 281 281 281 281 280 280 280 281 281 281 281 281 281
287 287 286 286 286 286 286 286 286 286 286 286 287 287 287 286 286 286 286 285 284 283 282 282 281 281 281 280 280 280 280 280 280 280 280 280 280 280 280 280 280 280
286 286 286 285 286 286 286 286 286 286 286 286 286 286 286 285 285 284 284 283 283 282 281 281 280 280 280 280 279 279 280 279 279 279 279 279 280 280 280 280 280 280
286 286 285 285 285 286 286 286 285 285 285 285 285 284 284 283 282 282 281 281 281 280 280 280 280 280 279 279 279 279 279 279 279 279 278 278 279 279 279 279 279 279
286 286 286 285 285 285 285 285 285 284 284 283 283 282 282 281 281 280 279 279 279 279 279 278 278 278 278 278 278 278 278 278 278 278 278 278 278 278 278 279 279 279
286 286 285 285 285 285 285 284 284 284 283 283 282 282 281 281 280 280 279 279 278 278 278 277 277 277 277 276 276 276 276 276 276 277 277 277 277 278 278 278 279 279
286 285 285 285 285 284 284 284 283 283 282 282 281 281 280 280 280 279 279 278 278 278 277 277 276 276 275 275 275 275 275 275 275 275 276 276 277 277 277 278 278 278
285 285 285 285 284 284 283 283 282 281 281 280 280 280 279 279 279 278 278 278 278 277 277 276 276 275 274 274 274 274 274 274 274 274 275 275 275 276 276 276 277 277
285 285 285 284 284 283 282 281 281 280 280 279 279 278 278 278 278 278 278 277 277 277 276 276 275 274 274 273 273 273 273 273 273 274 274 274 274 274 275 275 275 276
285 284 284 283 282 281 281 280 279 279 279 278 278 277 277 277 277 277 277 277 276 276 275 275 274 273 273 272 272 272 272 272 273 273 273 273 273 273 273 273 274 274
284 283 282 282 281 280 280 279 279 278 278 278 277 277 277 277 277 276 276 276 276 275 275 274 273 272 272 271 271 271 272 272 272 272 272 272 272 272 272 272 273 273
283 283 282 281 281 280 279 279 278 278 277 277 277 277 276 276 276 276 275 275 274 274 273 273 272 272 271 271 270 270 271 272 272 272 272 272 272 272 272 272 272 272
283 283 282 281 280 279 278 278 277 277 277 276 276 276 276 275 275 275 274 274 273 273 272 271 271 271 271 270 269 269 271 272 271 271 271 271 271 271 271 271 271 271
283 282 280 279 278 278 277 277 277 276 276 276 276 275 275 275 274 274 273 273 272 272 271 271 271 271 270 269 269 269 270 271 271 271 271 270 270 270 269 269 269 269
282 281 279 278 278 277 277 276 276 276 275 275 275 275 274 274 274 273 272 272 271 271 271 271 271 271 270 269 268 268 270 271 271 270 269 269 269 268 268 269 269 269
281 279 278 277 277 276 276 275 275 275 275 274 274 273 273 273 272 271 271 271 271 270 270 271 271 271 270 268 267 268 269 270 269 268 268 268 268 268 268 268 268 269
279 278 277 276 276 276 275 274 274 274 274 273 273 272 272 271 271 270 270 270 270 270 270 270 271 270 269 267 266 268 269 269 268 268 268 268 268 268 268 268 268 268
277 277 276 275 275 275 274 274 273 273 273 272 272 271 271 271 270 270 269 269 269 269 269 269 270 270 268 266 266 267 268 268 268 267 267 267 268 268 268 268 268 268
276 275 275 274 274 274 273 273 273 273 272 271 271 270 270 270 269 269 269 269 268 268 268 268 269 269 267 266 266 267 268 268 268 268 268 268 268 268 268 268 268 268
275 274 274 274 273 273 272 272 272 272 271 271 270 270 269 269 268 268 269 268 268 268 268 267 268 268 267 266 266 267 268 268 268 268 268 268 268 268 268 268 269 269
274 274 273 273 273 272 272 272 272 271 271 270 270 269 268 268 268 268 268 268 268 268 268 268 267 267 267 266 265 267 268 269 269 269 268 268 268 269 269 269 270 270
Wind_Speed
24 24 25 25 24 24 23 23 23 24 24 25 25 26 26 26 26 26 25 25 24 24 24 24 24 24 25 25 25 25 25 24 24 23 22 22 21 20 19 18 17 17
22 22 22 22 22 21 21 21 21 22 23 24 25 26 27 27 28 28 28 27 27 26 25 25 25 25 25 25 25 25 25 25 25 24 23 23 22 22 21 20 19 18
20 20 20 20 20 19 19 19 20 22 23 24 25 27 28 28 29 30 30 30 30 30 29 28 28 27 27 27 27 26 26 26 26 26 25 24 24 23 22 22 21 20
18 18 17 17 17 16 16 16 18 19 20 22 24 25 26 27 28 29 30 30 30 31 31 31 31 31 31 30 30 29 28 27 27 27 27 26 26 25 24 24 23 22
14 14 13 13 12 12 13 14 16 17 18 19 21 23 24 26 28 29 29 30 30 30 30 30 31 31 32 32 32 32 31 30 29 28 29 28 28 28 27 26 26 25
9 9 9 9 9 9 11 13 14 16 17 19 20 22 23 25 27 29 30 31 31 31 30 30 31 31 32 32 32 32 32 32 31 31 31 31 30 30 29 28 28 28
6 5 6 7 7 9 11 12 14 15 17 18 19 21 23 25 26 28 29 30 30 31 31 31 32 32 32 32 31 31 31 31 32 32 32 33 33 33 32 30 30 30
4 4 5 6 7 9 10 12 14 15 16 17 18 20 22 23 25 26 27 28 29 29 30 31 31 32 31 31 31 32 32 32 31 31 32 32 33 34 33 32 32 32
3 3 3 5 7 9 11 12 14 15 16 17 19 20 22 23 24 25 26 27 28 28 29 29 30 30 30 30 30 30 31 32 32 31 30 31 32 33 33 32 31 32
2 4 4 7 9 10 12 14 15 16 17 19 21 22 24 25 26 26 27 28 28 28 28 28 28 29 28 28 28 28 29 30 30 30 31 31 31 32 32 32 31 32
5 6 7 9 10 12 14 15 16 18 19 21 22 24 25 26 27 28 28 28 29 28 28 27 27 27 27 27 27 26 26 28 29 30 30 31 32 32 32 31 31 32
6 8 8 10 11 13 15 16 17 19 20 22 23 25 26 27 27 28 28 28 28 28 28 27 27 26 26 26 25 25 26 27 28 29 30 30 31 32 32 31 31 32
7 8 9 11 12 14 16 17 19 20 21 23 24 25 26 26 27 27 27 27 28 28 27 27 28 27 26 25 26 26 27 28 28 29 30 30 31 32 32 32 32 32
7 8 10 11 13 15 17 18 19 21 22 22 23 24 24 25 26 27 27 27 27 27 27 27 28 27 26 27 27 27 27 27 28 29 30 31 32 32 32 32 32 32
7 9 11 12 14 16 17 19 20 21 22 23 23 24 24 25 25 26 27 27 27 27 27 28 27 27 27 26 26 26 27 28 28 29 29 31 32 33 33 32 32 32
8 10 12 14 16 17 18 20 21 22 22 23 24 24 25 25 26 26 26 27 28 28 29 28 28 27 27 25 23 23 25 26 26 27 27 28 29 30 31 30 29 29
9 12 14 16 17 18 19 20 21 22 23 23 24 24 25 25 26 26 26 27 28 29 29 29 29 28 27 25 22 21 22 23 24 24 24 24 24 25 26 26 26 25
12 14 16 17 18 19 20 21 22 22 23 24 24 25 25 25 26 26 27 27 28 29 29 29 29 29 27 25 23 21 21 22 23 23 22 22 22 22 23 24 25 24
14 15 16 18 19 20 20 21 22 23 23 24 25 25 25 25 26 26 27 27 28 29 30 30 30 30 28 25 23 22 22 22 22 22 22 21 21 21 22 23 23 24
15 16 17 18 19 20 21 21 22 22 23 23 24 25 25 26 26 27 27 27 28 28 30 30 30 29 28 25 24 22 22 22 22 21 20 20 20 20 21 22 22 23
16 17 18 19 19 20 21 21 22 22 22 23 24 25 25 26 26 27 27 27 27 28 29 31 30 29 28 25 23 23 23 22 21 20 19 19 19 19 20 21 22 22
16 17 18 19 19 20 21 21 21 22 22 23 24 24 25 26 26 26 27 27 27 27 29 31 30 28 27 25 23 23 23 22 21 20 19 20 20 20 21 21 21 22
16 17 18 18 19 20 21 21 21 22 22 23 24 25 26 26 26 27 27 27 27 27 28 30 30 28 26 24 23 23 23 23 22 21 21 21 21 21 21 20 20 22
16 17 17 18 19 19 20 21 21 22 22 22 23 25 26 26 26 27 27 26 26 27 27 29 30 27 25 24 23 22 22 23 24 24 24 23 22 21 21 21 25 26
16 16 17 18 18 19 19 20 21 21 22 22 23 24 26 26 26 27 27 26 26 26 25 26 28 27 25 24 23 22 22 23 24 25 25 24 25 26 26 27 31 33
15 16 16 17 18 19 19 19 20 21 22 23 23 23 24 26 25 26 28 27 26 26 25 24 26 27 26 25 23 22 22 23 24 25 26 28 30 30 31 31 32 33
Wind_Direction
78 75 74 72 70 67 63 59 55 51 48 43 39 34 29 26 22 19 18 17 16 15 14 14 12 10 9 8 7 6 6 6 5 4 4 4 3 2 1 0 2 1
77 75 72 70 68 63 58 54 49 44 40 35 31 26 22 19 16 14 12 11 10 10 9 8 7 6 4 2 2 1 360 360 359 357 357 357 355 354 353 352 351 350
72 69 66 63 60 55 49 44 39 35 29 25 20 16 12 10 7 6 5 4 3 3 3 3 3 2 0 358 357 356 355 354 353 351 349 349 349 347 346 344 342 342
66 61 58 55 51 46 39 32 29 25 20 16 13 8 5 2 359 358 357 356 356 356 356 357 356 356 356 354 353 352 351 349 348 346 343 341 341 340 339 338 335 334
61 58 54 49 44 36 27 23 20 17 14 11 8 4 0 358 356 353 352 351 351 350 350 349 349 349 348 348 347 347 347 346 345 343 340 337 336 334 333 332 330 328
62 58 51 42 35 25 18 17 15 10 7 5 2 359 356 355 353 351 349 348 347 347 346 345 345 344 344 343 342 342 342 341 340 339 337 334 332 330 329 328 326 324
69 59 48 32 19 12 7 6 3 359 357 355 353 350 350 349 348 347 346 344 343 343 343 343 342 342 341 341 340 339 338 337 335 334 332 330 328 326 326 326 324 321
62 45 32 12 356 349 347 347 347 346 344 343 343 343 344 343 343 342 341 340 339 339 338 339 338 338 338 338 338 336 335 334 333 331 328 326 325 323 322 322 320 317
38 15 350 334 328 327 330 332 335 337 337 337 339 340 340 341 341 340 339 338 338 337 337 337 336 335 335 335 334 333 331 329 328 327 325 323 321 319 318 318 316 314
318 313 305 306 312 318 323 327 331 334 336 337 338 338 339 339 339 339 339 338 338 338 338 337 336 334 334 333 332 331 328 326 324 323 320 318 316 314 314 314 312 310
289 296 299 302 309 316 320 325 329 331 333 335 334 335 335 335 335 336 336 337 338 338 337 336 335 333 332 331 330 329 325 322 320 318 315 314 312 310 310 309 308 306
284 292 298 303 309 315 319 323 326 328 330 331 331 331 331 331 332 332 333 334 334 334 333 333 332 331 331 330 328 326 322 319 316 313 311 309 307 306 305 304 303 302
282 293 301 308 313 317 320 322 324 326 327 327 328 329 329 329 329 330 331 332 331 331 330 330 330 330 330 330 327 324 321 318 315 312 308 306 304 302 301 300 299 298
286 299 307 312 315 317 319 320 322 323 325 326 326 327 327 328 329 329 329 329 329 328 328 328 329 329 330 330 328 326 322 318 314 311 307 305 303 301 300 300 299 298
296 306 309 312 313 315 317 319 321 323 324 325 326 326 327 328 328 329 328 327 327 327 328 329 329 330 332 332 330 325 320 316 312 310 308 306 305 303 302 301 300 299
303 308 309 311 313 315 317 318 320 321 322 323 324 325 326 327 327 328 327 327 328 328 328 329 329 332 334 334 329 322 317 314 311 309 309 307 307 306 306 306 306 304
306 308 310 312 313 314 315 316 317 319 320 322 323 324 325 326 327 327 328 329 329 329 330 330 330 333 336 334 330 322 314 310 308 307 307 307 307 307 308 309 309 308
307 308 309 310 312 313 314 316 317 319 321 322 323 324 325 327 327 327 328 329 329 330 330 330 330 334 336 335 330 322 313 309 307 306 306 306 307 307 306 307 308 307
306 307 308 309 312 313 314 316 317 319 321 322 323 324 324 325 326 326 328 329 331 331 330 329 331 334 336 333 328 320 314 311 309 306 306 305 305 305 304 304 304 305
303 304 305 307 310 311 313 315 316 319 321 321 321 322 323 324 325 327 328 330 331 331 329 328 330 333 333 331 327 321 316 314 311 307 306 303 302 303 302 302 303 304
299 300 302 305 308 310 312 314 316 319 321 321 321 322 323 324 326 327 327 329 330 330 328 327 329 331 331 331 328 321 316 315 312 308 306 304 302 302 301 301 302 302
295 297 301 305 307 309 311 314 317 320 321 321 321 321 322 324 324 325 326 327 329 330 327 325 326 330 331 331 327 319 316 317 313 310 307 304 302 302 302 300 300 300
293 297 301 304 306 308 311 314 317 319 321 321 320 320 321 322 322 323 325 327 328 328 327 324 325 330 333 331 326 320 317 316 314 311 309 305 303 303 302 300 297 297
292 296 300 302 305 308 310 313 316 318 318 319 318 317 318 319 320 321 323 326 326 327 327 324 324 330 334 332 327 321 315 314 314 313 309 305 303 302 299 296 294 293
290 294 298 301 305 307 308 311 314 315 315 315 314 314 315 316 319 320 321 324 325 325 326 325 325 330 335 334 329 319 314 314 314 311 307 304 303 300 297 294 293 293
288 292 295 299 302 304 305 309 312 312 312 312 312 312 313 315 318 320 320 321 324 325 326 328 328 330 334 335 327 315 313 315 312 308 306 302 299 295 293 292 293 295